NW0017 Weather Reports


time (UTC)temp
C
wind
direction
speed
KPH
gust
KPH
rain 1hr
cm
rain 24hr
cm
rain mn
cm
humidity
%
barometer
mb
20260504224421 25 250 4.8 4.8 0.00 0.00 0.00 99 1007.5
20260504224321 25 254 4.8 3.2 0.00 0.00 0.00 99 1007.5
20260504224221 25 243 3.2 4.8 0.00 0.00 0.00 99 1007.5
20260504224121 25 243 4.8 3.2 0.00 0.00 0.00 99 1007.5
20260504224021 25 236 3.2 3.2 0.00 0.00 0.00 99 1007.5
20260504223921 25 229 3.2 3.2 0.00 0.00 0.00 99 1007.5
20260504223821 25 226 3.2 1.6 0.00 0.00 0.00 99 1007.4
20260504223721 25 226 1.6 1.6 0.00 0.00 0.00 99 1007.5
20260504223621 25 226 1.6 1.6 0.00 0.00 0.00 99 1007.5
20260504223521 25 226 1.6 3.2 0.00 0.00 0.00 99 1007.5
20260504223421 25 226 0.0 1.6 0.00 0.00 0.00 99 1007.5
20260504223321 25 226 1.6 1.6 0.00 0.00 0.00 99 1007.5
20260504223221 25 226 1.6 3.2 0.00 0.00 0.00 99 1007.5
20260504223121 25 226 3.2 4.8 0.00 0.00 0.00 99 1007.5
20260504223033 25 226 4.8 3.2 0.00 0.00 0.00 99 1007.5
20260504222921 25 231 3.2 3.2 0.00 0.00 0.00 99 1007.5
20260504222821 25 231 3.2 3.2 0.00 0.00 0.00 99 1007.5
20260504222721 25 231 3.2 3.2 0.00 0.00 0.00 99 1007.5
20260504222621 25 234 3.2 3.2 0.00 0.00 0.00 99 1007.5
20260504222521 25 249 3.2 3.2 0.00 0.00 0.00 99 1007.5
20260504222421 25 249 3.2 3.2 0.00 0.00 0.00 99 1007.5
20260504222321 25 250 3.2 3.2 0.00 0.00 0.00 99 1007.5
20260504222221 25 250 3.2 3.2 0.00 0.00 0.00 99 1007.5
20260504222121 25 250 3.2 4.8 0.00 0.00 0.00 99 1007.5
20260504222021 25 255 4.8 4.8 0.00 0.00 0.00 99 1007.5
20260504221921 25 255 4.8 3.2 0.00 0.00 0.00 99 1007.5
20260504221821 25 264 3.2 3.2 0.00 0.00 0.00 99 1007.5
20260504221721 25 265 3.2 1.6 0.00 0.00 0.00 99 1007.5
20260504221621 25 246 1.6 1.6 0.00 0.00 0.00 99 1007.5
20260504221522 25 244 1.6 3.2 0.00 0.00 0.00 99 1007.5
20260504221421 25 227 1.6 1.6 0.00 0.00 0.00 99 1007.5
20260504221321 25 203 1.6 3.2 0.00 0.00 0.00 99 1007.5
20260504221221 25 203 3.2 3.2 0.00 0.00 0.00 99 1007.5
20260504221121 25 203 3.2 3.2 0.00 0.00 0.00 99 1007.5
20260504221021 25 202 3.2 4.8 0.00 0.00 0.00 99 1007.5
20260504220921 25 202 4.8 3.2 0.00 0.00 0.00 99 1007.5
20260504220821 25 211 3.2 3.2 0.00 0.00 0.00 99 1007.5
20260504220721 25 208 3.2 1.6 0.00 0.00 0.00 99 1007.5
20260504220621 25 201 1.6 3.2 0.00 0.00 0.00 99 1007.5
20260504220521 25 198 3.2 3.2 0.00 0.00 0.00 99 1007.5
20260504220421 25 198 1.6 3.2 0.00 0.00 0.00 99 1007.5
20260504220321 25 203 3.2 3.2 0.00 0.00 0.00 99 1007.5
20260504220221 25 195 3.2 3.2 0.00 0.00 0.00 99 1007.5
20260504220121 25 196 3.2 3.2 0.00 0.00 0.00 99 1007.5
20260504220050 25 196 3.2 3.2 0.00 0.00 0.00 99 1007.5
20260504215921 25 189 3.2 3.2 0.00 0.00 0.00 99 1007.5
20260504215821 25 196 3.2 1.6 0.00 0.00 0.00 99 1007.5
20260504215721 25 194 1.6 3.2 0.00 0.00 0.00 99 1007.5
20260504215621 25 194 3.2 3.2 0.00 0.00 0.00 99 1007.5
20260504215521 25 193 3.2 1.6 0.00 0.00 0.00 99 1007.5
20260504215421 25 201 3.2 4.8 0.00 0.00 0.00 99 1007.5
20260504215321 25 205 4.8 4.8 0.00 0.00 0.00 99 1007.5
20260504215221 25 207 4.8 3.2 0.00 0.00 0.00 99 1007.5
20260504215121 25 204 3.2 3.2 0.00 0.00 0.00 99 1007.5
20260504215021 25 197 3.2 3.2 0.00 0.00 0.00 99 1007.5
20260504214921 25 213 3.2 3.2 0.00 0.00 0.00 99 1007.5
20260504214821 25 214 3.2 1.6 0.00 0.00 0.00 99 1007.5
20260504214721 25 208 1.6 1.6 0.00 0.00 0.00 99 1007.5
20260504214621 25 208 1.6 1.6 0.00 0.00 0.00 99 1007.5
20260504214532 25 208 1.6 3.2 0.00 0.00 0.00 99 1007.5
20260504214421 25 202 1.6 1.6 0.00 0.00 0.00 99 1007.5
20260504214321 25 202 1.6 1.6 0.00 0.00 0.00 99 1007.5
20260504214222 25 202 1.6 1.6 0.00 0.00 0.00 99 1007.5
20260504214121 25 202 1.6 1.6 0.00 0.00 0.00 99 1007.5
20260504214021 25 202 1.6 3.2 0.00 0.00 0.00 99 1007.5
20260504213921 25 198 3.2 3.2 0.00 0.00 0.00 99 1007.5
20260504213821 25 186 3.2 3.2 0.00 0.00 0.00 99 1007.5
20260504213721 25 207 3.2 3.2 0.00 0.00 0.00 99 1007.5
20260504213621 25 219 3.2 3.2 0.00 0.00 0.00 99 1007.6
20260504213521 25 203 3.2 3.2 0.00 0.00 0.00 99 1007.6
20260504213421 25 224 3.2 1.6 0.00 0.00 0.00 99 1007.6
20260504213321 25 224 1.6 1.6 0.00 0.00 0.00 99 1007.6
20260504213221 25 224 1.6 3.2 0.00 0.00 0.00 99 1007.6
20260504213121 25 225 3.2 3.2 0.00 0.00 0.00 99 1007.6
20260504213028 25 224 3.2 3.2 0.00 0.00 0.00 99 1007.6
20260504212921 25 227 3.2 3.2 0.00 0.00 0.00 99 1007.6
20260504212821 25 233 3.2 4.8 0.00 0.00 0.00 99 1007.6
20260504212721 25 227 4.8 3.2 0.00 0.00 0.00 99 1007.6
20260504212621 25 228 3.2 4.8 0.00 0.00 0.00 99 1007.6
20260504212521 25 227 4.8 3.2 0.00 0.00 0.00 99 1007.6
20260504212421 25 228 4.8 3.2 0.00 0.00 0.00 99 1007.6
20260504212321 25 250 3.2 3.2 0.00 0.00 0.00 99 1007.6
20260504212221 25 250 3.2 1.6 0.00 0.00 0.00 99 1007.6
20260504212121 25 250 1.6 3.2 0.00 0.00 0.00 99 1007.6
20260504212021 25 250 3.2 3.2 0.00 0.00 0.00 99 1007.6
20260504211921 25 250 3.2 1.6 0.00 0.00 0.00 99 1007.7
20260504211821 25 265 1.6 1.6 0.00 0.00 0.00 99 1007.7
20260504211721 25 265 1.6 3.2 0.00 0.00 0.00 99 1007.7
20260504211621 25 265 3.2 3.2 0.00 0.00 0.00 99 1007.7
20260504211522 25 265 3.2 1.6 0.00 0.00 0.00 99 1007.7
20260504211420 25 265 3.2 3.2 0.00 0.00 0.00 99 1007.7
20260504211321 25 265 3.2 3.2 0.00 0.00 0.00 99 1007.7
20260504211221 25 265 3.2 3.2 0.00 0.00 0.00 99 1007.7
20260504211120 25 265 3.2 3.2 0.00 0.00 0.00 99 1007.7
20260504211021 25 265 3.2 3.2 0.00 0.00 0.00 99 1007.7
20260504210920 25 265 3.2 3.2 0.00 0.00 0.00 99 1007.7
20260504210820 25 264 3.2 1.6 0.00 0.00 0.00 99 1007.7
20260504210720 25 264 1.6 0.0 0.00 0.00 0.00 99 1007.7
20260504210620 25 264 0.0 0.0 0.00 0.00 0.00 99 1007.7
20260504210521 25 264 0.0 0.0 0.00 0.00 0.00 99 1007.7
20260504210422 25 264 0.0 0.0 0.00 0.00 0.00 99 1007.7
20260504210320 25 264 0.0 1.6 0.00 0.00 0.00 99 1007.7
20260504210220 25 264 1.6 1.6 0.00 0.00 0.00 99 1007.7
20260504210120 25 264 1.6 1.6 0.00 0.00 0.00 99 1007.7
20260504210020 25 263 1.6 1.6 0.00 0.00 0.00 99 1007.7
20260504205920 25 258 1.6 1.6 0.00 0.00 0.00 99 1007.7
20260504205820 25 257 1.6 3.2 0.00 0.00 0.00 99 1007.7
20260504205720 25 257 3.2 1.6 0.00 0.00 0.00 99 1007.7
20260504205620 25 241 1.6 0.0 0.00 0.00 0.00 99 1007.7
20260504205520 25 240 0.0 0.0 0.00 0.00 0.00 99 1007.7
20260504205420 25 240 0.0 0.0 0.00 0.00 0.00 99 1007.7
20260504205320 25 240 0.0 0.0 0.00 0.00 0.00 99 1007.7
20260504205220 25 240 0.0 0.0 0.00 0.00 0.00 99 1007.7
20260504205120 25 240 0.0 0.0 0.00 0.00 0.00 99 1007.7
20260504205020 25 240 0.0 0.0 0.00 0.00 0.00 99 1007.7
20260504204920 25 240 0.0 0.0 0.00 0.00 0.00 99 1007.6
20260504204820 25 240 0.0 0.0 0.00 0.00 0.00 99 1007.6
20260504204720 25 240 0.0 0.0 0.00 0.00 0.00 99 1007.6
20260504204620 25 240 0.0 0.0 0.00 0.00 0.00 99 1007.6
20260504204526 25 240 0.0 0.0 0.00 0.00 0.00 99 1007.6
20260504204420 25 240 0.0 0.0 0.00 0.00 0.00 99 1007.6
20260504204320 25 240 0.0 0.0 0.00 0.00 0.00 99 1007.6
20260504204220 25 240 0.0 0.0 0.00 0.00 0.00 99 1007.6
20260504204120 25 240 0.0 0.0 0.00 0.00 0.00 99 1007.6
20260504204020 25 240 0.0 1.6 0.00 0.00 0.00 99 1007.6
20260504203920 25 240 1.6 1.6 0.00 0.00 0.00 99 1007.6
20260504203820 25 240 1.6 0.0 0.00 0.00 0.00 99 1007.6
20260504203720 25 240 0.0 0.0 0.00 0.00 0.00 99 1007.6
20260504203620 25 240 0.0 0.0 0.00 0.00 0.00 99 1007.5
20260504203520 25 240 0.0 1.6 0.00 0.00 0.00 99 1007.5
20260504203420 25 240 0.0 0.0 0.00 0.00 0.00 99 1007.5
20260504203320 25 240 0.0 0.0 0.00 0.00 0.00 99 1007.5
20260504203220 25 240 0.0 0.0 0.00 0.00 0.00 99 1007.5
20260504203120 25 240 0.0 1.6 0.00 0.00 0.00 99 1007.5
20260504203032 25 240 1.6 3.2 0.00 0.00 0.00 99 1007.5
20260504202920 25 240 3.2 1.6 0.00 0.00 0.00 99 1007.5
20260504202820 25 240 1.6 0.0 0.00 0.00 0.00 99 1007.5
20260504202720 25 240 0.0 0.0 0.00 0.00 0.00 99 1007.5
20260504202620 25 240 0.0 1.6 0.00 0.00 0.00 99 1007.5
20260504202520 25 240 1.6 3.2 0.00 0.00 0.00 99 1007.5
20260504202420 25 240 1.6 3.2 0.00 0.00 0.00 99 1007.5
20260504202320 25 240 3.2 1.6 0.00 0.00 0.00 99 1007.5
20260504202220 25 240 1.6 3.2 0.00 0.00 0.00 99 1007.5
20260504202120 25 240 3.2 3.2 0.00 0.00 0.00 99 1007.5
20260504202020 25 240 3.2 3.2 0.00 0.00 0.00 99 1007.6
20260504201920 25 240 3.2 4.8 0.00 0.00 0.00 99 1007.6
20260504201820 25 240 4.8 6.4 0.00 0.00 0.00 99 1007.6
20260504201720 25 241 6.4 4.8 0.00 0.00 0.00 99 1007.6
20260504201620 25 257 4.8 4.8 0.00 0.00 0.00 99 1007.6
20260504201542 25 257 4.8 0.0 0.00 0.00 0.00 99 1007.6
20260504201420 25 257 4.8 3.2 0.00 0.00 0.00 99 1007.6
20260504201320 25 267 3.2 3.2 0.00 0.00 0.00 99 1007.6
20260504201220 25 267 3.2 0.0 0.00 0.00 0.00 99 1007.6
20260504201120 25 267 0.0 0.0 0.00 0.00 0.00 99 1007.6
20260504201020 25 267 0.0 0.0 0.00 0.00 0.00 99 1007.6
20260504200920 25 267 0.0 0.0 0.00 0.00 0.00 99 1007.7
20260504200820 25 267 0.0 0.0 0.00 0.00 0.00 99 1007.7
20260504200720 25 267 0.0 0.0 0.00 0.00 0.00 99 1007.7
20260504200620 25 267 0.0 0.0 0.00 0.00 0.00 99 1007.7
20260504200520 25 267 0.0 0.0 0.00 0.00 0.00 99 1007.7
20260504200420 25 267 0.0 0.0 0.00 0.00 0.00 99 1007.7
20260504200320 25 267 0.0 0.0 0.00 0.00 0.00 99 1007.8
20260504200220 25 267 0.0 0.0 0.00 0.00 0.00 99 1007.8
20260504200120 25 267 0.0 0.0 0.00 0.00 0.00 99 1007.8
20260504200022 25 267 0.0 0.0 0.00 0.00 0.00 99 1007.8
20260504195920 25 267 0.0 0.0 0.00 0.00 0.00 99 1007.8
20260504195820 25 267 0.0 0.0 0.00 0.00 0.00 99 1007.8
20260504195720 25 267 0.0 0.0 0.00 0.00 0.00 99 1007.8
20260504195620 25 267 0.0 0.0 0.00 0.00 0.00 99 1007.9
20260504195520 25 266 0.0 0.0 0.00 0.00 0.00 99 1007.9
20260504195420 25 267 0.0 0.0 0.00 0.00 0.00 99 1007.9
20260504195320 25 267 0.0 0.0 0.00 0.00 0.00 99 1007.9
20260504195220 25 267 0.0 0.0 0.00 0.00 0.00 99 1008.0
20260504195120 25 267 0.0 0.0 0.00 0.00 0.00 99 1008.0
20260504195020 25 267 0.0 0.0 0.00 0.00 0.00 99 1008.0
20260504194920 25 267 0.0 0.0 0.00 0.00 0.00 99 1008.0
20260504194820 25 267 0.0 0.0 0.00 0.00 0.00 99 1008.0
20260504194720 25 267 0.0 0.0 0.00 0.00 0.00 99 1008.0
20260504194620 25 267 0.0 0.0 0.00 0.00 0.00 99 1008.1
20260504194521 25 267 0.0 0.0 0.00 0.00 0.00 99 1008.1
20260504194420 25 263 0.0 0.0 0.00 0.00 0.00 99 1008.1
20260504194320 25 263 0.0 0.0 0.00 0.00 0.00 99 1008.1
20260504194220 25 263 0.0 0.0 0.00 0.00 0.00 99 1008.1
20260504194120 25 263 0.0 0.0 0.00 0.00 0.00 99 1008.1
20260504194020 25 263 0.0 0.0 0.00 0.00 0.00 99 1008.1
20260504193920 25 263 0.0 0.0 0.00 0.00 0.00 99 1008.2
20260504193820 25 263 0.0 0.0 0.00 0.00 0.00 99 1008.2
20260504193720 25 263 0.0 0.0 0.00 0.00 0.00 99 1008.2
20260504193620 25 263 0.0 0.0 0.00 0.00 0.00 99 1008.2
20260504193520 25 263 0.0 0.0 0.00 0.00 0.00 99 1008.2
20260504193420 25 263 0.0 0.0 0.00 0.00 0.00 99 1008.2
20260504193320 25 263 0.0 0.0 0.00 0.00 0.00 99 1008.2
20260504193220 25 270 0.0 0.0 0.00 0.00 0.00 99 1008.2
20260504193120 25 271 0.0 0.0 0.00 0.00 0.00 99 1008.2
20260504193023 25 271 0.0 0.0 0.00 0.00 0.00 99 1008.3
20260504192920 25 277 0.0 0.0 0.00 0.00 0.00 99 1008.3
20260504192820 25 277 0.0 0.0 0.00 0.00 0.00 99 1008.3
20260504192720 25 277 0.0 0.0 0.00 0.00 0.00 99 1008.3
20260504192620 25 283 0.0 0.0 0.00 0.00 0.00 99 1008.3
20260504192520 25 283 0.0 0.0 0.00 0.00 0.00 99 1008.3
20260504192420 25 283 0.0 0.0 0.00 0.00 0.00 99 1008.3
20260504192320 25 283 0.0 0.0 0.00 0.00 0.00 99 1008.4
20260504192220 25 283 0.0 0.0 0.00 0.00 0.00 99 1008.4
20260504192120 25 283 0.0 0.0 0.00 0.00 0.00 99 1008.4
20260504192020 25 283 0.0 0.0 0.00 0.00 0.00 99 1008.4
20260504191920 25 283 0.0 0.0 0.00 0.00 0.00 99 1008.4
20260504191820 25 283 0.0 0.0 0.00 0.00 0.00 99 1008.4
20260504191720 25 283 0.0 0.0 0.00 0.00 0.00 99 1008.4
20260504191620 25 283 0.0 0.0 0.00 0.00 0.00 99 1008.4
20260504191520 25 283 0.0 3.2 0.00 0.00 0.00 99 1008.4
20260504191420 25 283 0.0 0.0 0.00 0.00 0.00 99 1008.4
20260504191319 25 283 0.0 0.0 0.00 0.00 0.00 99 1008.4
20260504191220 25 283 0.0 1.6 0.00 0.00 0.00 99 1008.4
20260504191119 25 283 1.6 1.6 0.00 0.00 0.00 99 1008.4
20260504191019 25 283 1.6 1.6 0.00 0.00 0.00 99 1008.4
20260504190919 25 283 1.6 3.2 0.00 0.00 0.00 99 1008.4
20260504190820 25 283 3.2 3.2 0.00 0.00 0.00 99 1008.4
20260504190719 25 283 3.2 3.2 0.00 0.00 0.00 99 1008.4
20260504190619 25 283 3.2 1.6 0.00 0.00 0.00 99 1008.5
20260504190519 25 283 1.6 1.6 0.00 0.00 0.00 99 1008.5
20260504190419 25 283 1.6 1.6 0.00 0.00 0.00 99 1008.5
20260504190319 25 283 1.6 3.2 0.00 0.00 0.00 99 1008.5
20260504190219 25 283 3.2 3.2 0.00 0.00 0.00 99 1008.5
20260504190119 25 283 3.2 3.2 0.00 0.00 0.00 99 1008.5
20260504190019 25 283 3.2 3.2 0.00 0.00 0.00 99 1008.5
20260504185919 25 283 3.2 4.8 0.00 0.00 0.00 99 1008.5
20260504185819 25 288 4.8 4.8 0.00 0.00 0.00 99 1008.5
20260504185719 25 288 4.8 4.8 0.00 0.00 0.00 99 1008.5
20260504185619 25 288 4.8 4.8 0.00 0.00 0.00 99 1008.6
20260504185519 25 288 4.8 0.0 0.00 0.00 0.00 99 1008.6
20260504185419 25 289 3.2 3.2 0.00 0.00 0.00 99 1008.6
20260504185319 25 289 3.2 0.0 0.00 0.00 0.00 99 1008.6
20260504185219 25 289 0.0 0.0 0.00 0.00 0.00 99 1008.6
20260504185119 25 297 0.0 0.0 0.00 0.00 0.00 99 1008.6
20260504185019 25 297 0.0 0.0 0.00 0.00 0.00 99 1008.6
20260504184919 25 298 0.0 0.0 0.00 0.00 0.00 99 1008.6
20260504184819 25 298 0.0 0.0 0.00 0.00 0.00 99 1008.6
20260504184719 25 298 0.0 0.0 0.00 0.00 0.00 99 1008.6
20260504184619 25 298 0.0 0.0 0.00 0.00 0.00 99 1008.6
20260504184519 25 298 0.0 1.6 0.00 0.00 0.00 99 1008.6
20260504184419 25 298 0.0 0.0 0.00 0.00 0.00 99 1008.6
20260504184319 25 298 0.0 0.0 0.00 0.00 0.00 99 1008.7
20260504184219 25 298 0.0 0.0 0.00 0.00 0.00 99 1008.7
20260504184119 25 298 0.0 0.0 0.00 0.00 0.00 99 1008.7
20260504184019 25 298 0.0 0.0 0.00 0.00 0.00 99 1008.7
20260504183919 25 298 0.0 0.0 0.00 0.00 0.00 99 1008.7
20260504183819 25 298 0.0 0.0 0.00 0.00 0.00 99 1008.7
20260504183719 25 298 0.0 0.0 0.00 0.00 0.00 99 1008.7
20260504183619 25 298 0.0 0.0 0.00 0.00 0.00 99 1008.7
20260504183519 25 298 0.0 1.6 0.00 0.00 0.00 99 1008.7
20260504183419 25 298 0.0 0.0 0.00 0.00 0.00 99 1008.7
20260504183319 25 298 0.0 1.6 0.00 0.00 0.00 99 1008.7
20260504183219 25 298 1.6 3.2 0.00 0.00 0.00 99 1008.7
20260504183119 25 298 3.2 3.2 0.00 0.00 0.00 99 1008.7
20260504183025 25 298 3.2 3.2 0.00 0.00 0.00 99 1008.7
20260504182919 25 298 3.2 3.2 0.00 0.00 0.00 99 1008.7
20260504182819 25 298 3.2 3.2 0.00 0.00 0.00 99 1008.7
20260504182719 25 298 3.2 3.2 0.00 0.00 0.00 99 1008.8
20260504182619 25 298 3.2 3.2 0.00 0.00 0.00 99 1008.8
20260504182519 25 298 3.2 0.0 0.00 0.00 0.00 99 1008.8
20260504182419 25 298 3.2 1.6 0.00 0.00 0.00 99 1008.8
20260504182319 25 280 1.6 0.0 0.00 0.00 0.00 99 1008.8
20260504182219 25 274 0.0 0.0 0.00 0.00 0.00 99 1008.8
20260504182119 25 274 0.0 0.0 0.00 0.00 0.00 99 1008.9
20260504182019 25 274 0.0 0.0 0.00 0.00 0.00 99 1008.9
20260504181919 25 274 0.0 0.0 0.00 0.00 0.00 99 1008.9
20260504181819 25 274 0.0 0.0 0.00 0.00 0.00 99 1008.9
20260504181719 25 274 0.0 0.0 0.00 0.00 0.00 99 1008.9
20260504181619 25 274 0.0 0.0 0.00 0.00 0.00 99 1008.9
20260504181525 25 274 0.0 0.0 0.00 0.00 0.00 99 1008.9
20260504181419 25 274 0.0 0.0 0.00 0.00 0.00 99 1008.9
20260504181319 25 274 0.0 0.0 0.00 0.00 0.00 99 1009.0
20260504181219 25 274 0.0 0.0 0.00 0.00 0.00 99 1009.0
20260504181119 25 274 0.0 0.0 0.00 0.00 0.00 99 1009.0
20260504181019 25 274 0.0 0.0 0.00 0.00 0.00 99 1009.0
20260504180919 25 274 0.0 0.0 0.00 0.00 0.00 99 1009.0
20260504180819 25 274 0.0 0.0 0.00 0.00 0.00 99 1009.0
20260504180719 25 274 0.0 0.0 0.00 0.00 0.00 99 1009.0
20260504180619 25 274 0.0 0.0 0.00 0.00 0.00 99 1009.0
20260504180519 25 274 0.0 0.0 0.00 0.00 0.00 99 1009.1
20260504180419 25 274 0.0 0.0 0.00 0.00 0.00 99 1009.1
20260504180319 25 274 0.0 0.0 0.00 0.00 0.00 99 1009.1
20260504180219 25 274 0.0 0.0 0.00 0.00 0.00 99 1009.1
20260504180119 25 274 0.0 0.0 0.00 0.00 0.00 99 1009.1
20260504180021 25 274 0.0 0.0 0.00 0.00 0.00 99 1009.1
20260504175919 25 274 0.0 0.0 0.00 0.00 0.00 99 1009.1
20260504175819 25 274 0.0 0.0 0.00 0.00 0.00 99 1009.1
20260504175719 25 274 0.0 0.0 0.00 0.00 0.00 99 1009.1
20260504175619 25 274 0.0 0.0 0.00 0.00 0.00 99 1009.1
20260504175519 25 274 0.0 1.6 0.00 0.00 0.00 99 1009.1
20260504175419 25 274 0.0 0.0 0.00 0.00 0.00 99 1009.1
20260504175319 25 274 0.0 0.0 0.00 0.00 0.00 99 1009.2
20260504175219 25 274 0.0 0.0 0.00 0.00 0.00 99 1009.2
20260504175119 25 274 0.0 0.0 0.00 0.00 0.00 99 1009.2
20260504175019 25 274 0.0 1.6 0.00 0.00 0.00 99 1009.2
20260504174919 25 274 1.6 0.0 0.00 0.00 0.00 99 1009.2
20260504174819 25 274 0.0 0.0 0.00 0.00 0.00 99 1009.3
20260504174719 25 274 0.0 0.0 0.00 0.00 0.00 99 1009.3
20260504174619 25 274 0.0 0.0 0.00 0.00 0.00 99 1009.3
20260504174519 25 274 0.0 3.2 0.00 0.00 0.00 99 1009.3
20260504174419 25 274 0.0 0.0 0.00 0.00 0.00 99 1009.3
20260504174319 25 274 0.0 0.0 0.00 0.00 0.00 99 1009.3
20260504174219 25 274 0.0 0.0 0.00 0.00 0.00 99 1009.3
20260504174119 25 274 0.0 1.6 0.00 0.00 0.00 99 1009.3
20260504174019 25 274 1.6 1.6 0.00 0.00 0.00 99 1009.3
20260504173919 25 274 1.6 1.6 0.00 0.00 0.00 99 1009.4
20260504173819 25 274 1.6 3.2 0.00 0.00 0.00 99 1009.4
20260504173719 25 274 3.2 3.2 0.00 0.00 0.00 99 1009.4
20260504173619 25 274 3.2 3.2 0.00 0.00 0.00 99 1009.4
20260504173519 26 274 3.2 3.2 0.00 0.00 0.00 99 1009.4
20260504173419 26 274 3.2 3.2 0.00 0.00 0.00 99 1009.4
20260504173319 26 274 3.2 4.8 0.00 0.00 0.00 99 1009.4
20260504173219 26 274 4.8 3.2 0.00 0.00 0.00 99 1009.4
20260504173119 26 274 3.2 3.2 0.00 0.00 0.00 99 1009.4
20260504173021 26 274 3.2 3.2 0.00 0.00 0.00 99 1009.4
20260504172919 26 274 3.2 3.2 0.00 0.00 0.00 99 1009.4
20260504172819 26 274 3.2 3.2 0.00 0.00 0.00 99 1009.4
20260504172719 26 274 3.2 4.8 0.00 0.00 0.00 99 1009.4
20260504172619 26 275 4.8 3.2 0.00 0.00 0.00 99 1009.4
20260504172519 26 276 3.2 4.8 0.00 0.00 0.00 99 1009.5
20260504172419 26 276 4.8 4.8 0.00 0.00 0.00 99 1009.5
20260504172319 26 275 4.8 3.2 0.00 0.00 0.00 99 1009.5
20260504172219 26 276 3.2 3.2 0.00 0.00 0.00 99 1009.5
20260504172119 26 276 3.2 3.2 0.00 0.00 0.00 99 1009.5
20260504172018 26 279 3.2 3.2 0.00 0.00 0.00 99 1009.6
20260504171919 26 282 3.2 3.2 0.00 0.00 0.00 99 1009.6
20260504171819 26 283 3.2 4.8 0.00 0.00 0.00 99 1009.6
20260504171719 26 280 4.8 4.8 0.00 0.00 0.00 99 1009.6
20260504171618 26 293 4.8 4.8 0.00 0.00 0.00 99 1009.5
20260504171518 26 294 4.8 4.8 0.00 0.00 0.00 99 1009.5
20260504171419 26 294 4.8 3.2 0.00 0.00 0.00 99 1009.5
20260504171318 26 294 3.2 4.8 0.00 0.00 0.00 99 1009.5
20260504171219 26 294 4.8 4.8 0.00 0.00 0.00 99 1009.5
20260504171118 26 296 4.8 6.4 0.00 0.00 0.00 99 1009.5
20260504171018 26 297 6.4 4.8 0.00 0.00 0.00 99 1009.5
20260504170818 26 275 3.2 3.2 0.00 0.00 0.00 99 1009.5
20260504170718 26 275 3.2 3.2 0.00 0.00 0.00 99 1009.5
20260504170618 26 275 3.2 4.8 0.00 0.00 0.00 99 1009.5
20260504170518 26 274 4.8 4.8 0.00 0.00 0.00 99 1009.6
20260504170418 26 274 4.8 3.2 0.00 0.00 0.00 99 1009.6
20260504170318 26 274 3.2 4.8 0.00 0.00 0.00 99 1009.6
20260504170218 26 277 4.8 4.8 0.00 0.00 0.00 99 1009.6
20260504170118 26 277 4.8 3.2 0.00 0.00 0.00 99 1009.6
20260504160418 26 273 4.8 3.2 0.00 0.00 0.00 99 1009.8
20260504160318 26 273 3.2 3.2 0.00 0.00 0.00 99 1009.7
20260504160218 26 272 3.2 4.8 0.00 0.00 0.00 99 1009.7
20260504160118 26 272 4.8 4.8 0.00 0.00 0.00 99 1009.7
20260504151117 27 272 1.6 1.6 0.00 0.00 0.00 99 1009.2
20260504151017 27 272 1.6 1.6 0.00 0.00 0.00 99 1009.2
20260504150917 27 272 1.6 1.6 0.00 0.00 0.00 99 1009.2
20260504150817 27 272 1.6 1.6 0.00 0.00 0.00 99 1009.2
20260504150717 27 272 1.6 1.6 0.00 0.00 0.00 99 1009.2
20260504150617 27 272 1.6 1.6 0.00 0.00 0.00 99 1009.2
20260504150518 27 272 1.6 4.8 0.00 0.00 0.00 99 1009.1
20260504150417 27 272 1.6 3.2 0.00 0.00 0.00 99 1009.1
20260504150317 27 272 3.2 1.6 0.00 0.00 0.00 99 1009.1
20260504150217 27 272 1.6 3.2 0.00 0.00 0.00 99 1009.1
20260504150117 27 272 3.2 3.2 0.00 0.00 0.00 99 1009.1
20260504141317 27 182 1.6 0.0 0.00 0.00 0.00 99 1008.4
20260504141217 27 182 0.0 0.0 0.00 0.00 0.00 99 1008.4
20260504141117 27 132 0.0 0.0 0.00 0.00 0.00 99 1008.4
20260504141017 27 106 0.0 0.0 0.00 0.00 0.00 99 1008.4
20260504140917 27 106 0.0 0.0 0.00 0.00 0.00 99 1008.3
20260504140817 27 106 0.0 0.0 0.00 0.00 0.00 99 1008.3
20260504140732 27 106 0.0 0.0 0.00 0.00 0.00 99 1008.3
20260504140727 27 106 0.0 0.0 0.00 0.00 0.00 99 1008.3
20260504140547 27 106 0.0 0.0 0.00 0.00 0.00 99 1008.3
20260504140531 27 106 0.0 0.0 0.00 0.00 0.00 99 1008.3
20260504140529 27 106 0.0 0.0 0.00 0.00 0.00 99 1008.3
20260504140118 27 106 0.0 0.0 0.00 0.00 0.00 99 1008.3
20260504140112 27 106 0.0 0.0 0.00 0.00 0.00 99 1008.3
20260504140107 27 106 0.0 0.0 0.00 0.00 0.00 99 1008.2
20260504140105 27 106 0.0 0.0 0.00 0.00 0.00 99 1008.2
20260504130806 28 106 0.0 0.0 0.00 0.00 0.00 96 1007.5
20260504130800 28 106 0.0 0.0 0.00 0.00 0.00 97 1007.5
20260504110705 30 62 4.8 3.2 0.00 0.00 0.00 90 1006.3
20260504110643 30 78 3.2 3.2 0.00 0.00 0.00 90 1006.3
20260504110554 30 54 3.2 3.2 0.00 0.00 0.00 90 1006.3
20260504110404 30 54 3.2 3.2 0.00 0.00 0.00 90 1006.3
20260504110307 30 57 4.8 4.8 0.00 0.00 0.00 90 1006.3
20260504110107 30 71 4.8 4.8 0.00 0.00 0.00 90 1006.3
20260504110105 30 39 4.8 6.4 0.00 0.00 0.00 90 1006.3
20260504100354 31 354 1.6 0.0 0.00 0.00 0.00 87 1006.0
20260504100244 31 351 0.0 0.0 0.00 0.00 0.00 87 1006.0
20260504090127 31 282 0.0 1.6 0.00 0.00 0.00 84 1005.6
20260504080808 28 263 0.0 3.2 0.00 0.00 0.00 97 1006.6
20260504080706 28 260 3.2 1.6 0.00 0.00 0.00 98 1006.6
20260504080606 28 291 1.6 1.6 0.00 0.00 0.00 99 1006.6
20260504080506 28 257 1.6 0.0 0.00 0.00 0.00 99 1006.6
20260504080406 28 253 0.0 0.0 0.00 0.00 0.00 98 1006.6
20260504080306 28 253 0.0 0.0 0.00 0.00 0.00 99 1006.6
20260504080206 27 177 0.0 0.0 0.00 0.00 0.00 99 1006.6
20260504080106 27 177 0.0 0.0 0.00 0.00 0.00 98 1006.7
20260504070405 31 20 9.7 9.7 0.00 0.00 0.00 86 1007.6
20260504070305 31 5 9.7 11.3 0.00 0.00 0.00 86 1007.7
20260504070205 31 23 11.3 11.3 0.00 0.00 0.00 86 1007.7
20260504070105 31 0 11.3 9.7 0.00 0.00 0.00 86 1007.7
20260504060205 31 0 8.0 11.3 0.00 0.00 0.00 86 1008.7
20260504060105 31 0 11.3 12.9 0.00 0.00 0.00 85 1008.7
20260504050704 27 342 6.4 6.4 0.00 0.00 0.00 96 1010.0
20260504050604 27 355 6.4 4.8 0.00 0.00 0.00 96 1010.0
20260504050504 27 355 4.8 6.4 0.00 0.00 0.00 96 1010.0
20260504050404 27 355 8.0 9.7 0.00 0.00 0.00 95 1010.1
20260504050304 27 22 9.7 8.0 0.00 0.00 0.00 96 1010.1
20260504050204 27 6 8.0 6.4 0.00 0.00 0.00 98 1010.1
20260504050123 27 344 1.6 1.6 0.00 0.00 0.00 98 1010.2
20260504045904 27 326 1.6 4.8 0.00 0.00 0.00 97 1010.2
20260504045804 27 328 4.8 6.4 0.00 0.00 0.00 98 1010.2
20260504045704 27 321 6.4 4.8 0.00 0.00 0.00 98 1010.2
20260504045604 26 330 4.8 4.8 0.00 0.00 0.00 99 1010.3
20260504045504 26 328 4.8 11.3 0.00 0.00 0.00 98 1010.3
20260504045404 26 353 6.4 6.4 0.00 0.00 0.00 98 1010.3
20260504045304 26 355 6.4 4.8 0.00 0.00 0.00 99 1010.3
20260504045204 26 355 4.8 6.4 0.00 0.00 0.00 98 1010.3
20260504045104 26 350 6.4 8.0 0.00 0.00 0.00 99 1010.3
20260504045004 26 348 8.0 8.0 0.00 0.00 0.00 99 1010.3
20260504044904 26 351 8.0 6.4 0.00 0.00 0.00 99 1010.3
20260504044804 26 335 6.4 6.4 0.00 0.00 0.00 99 1010.3
20260504044704 26 0 6.4 11.3 0.00 0.00 0.00 99 1010.3
20260504044604 26 18 11.3 9.7 0.00 0.00 0.00 99 1010.3
20260504044523 26 15 9.7 17.7 0.00 0.00 0.00 99 1010.3
20260504044404 26 35 12.9 12.9 0.00 0.00 0.00 99 1010.3
20260504044304 26 30 12.9 11.3 0.00 0.00 0.00 99 1010.3
20260504044206 26 47 11.3 9.7 0.00 0.00 0.00 99 1010.3
20260504044106 26 44 9.7 12.9 0.00 0.00 0.00 99 1010.3
20260504044004 26 9 12.9 8.0 0.00 0.00 0.00 99 1010.3
20260504043911 26 231 8.0 6.4 0.00 0.00 0.00 99 1010.2
20260504043804 26 330 6.4 11.3 0.00 0.00 0.00 99 1010.2
20260504043704 26 328 11.3 16.1 0.00 0.00 0.00 99 1010.2
20260504043604 26 328 16.1 12.9 0.00 0.00 0.00 99 1010.2
20260504043504 26 338 12.9 17.7 0.00 0.00 0.00 99 1010.2
20260504043404 26 353 11.3 12.9 0.00 0.00 0.00 99 1010.2
20260504043304 26 355 12.9 19.3 0.00 0.00 0.00 99 1010.2
20260504043204 26 355 19.3 16.1 0.00 0.00 0.00 99 1010.2
20260504043104 26 355 16.1 22.5 0.00 0.00 0.00 99 1010.2
20260504043010 26 298 22.5 17.7 0.00 0.00 0.00 99 1010.2
20260504042904 27 5 17.7 20.9 0.00 0.00 0.00 99 1010.1
20260504042804 27 22 20.9 24.1 0.00 0.00 0.00 99 1010.1
20260504042704 27 55 24.1 29.0 0.00 0.00 0.00 98 1010.1
20260504042604 28 50 29.0 37.0 0.00 0.00 0.00 96 1010.0
20260504042504 29 78 37.0 3.2 0.00 0.00 0.00 93 1010.0
20260504042404 30 103 19.3 12.9 0.00 0.00 0.00 91 1009.9
20260504042304 30 108 12.9 12.9 0.00 0.00 0.00 87 1009.8
20260504042204 30 60 12.9 14.5 0.00 0.00 0.00 85 1009.8
20260504042104 31 44 14.5 12.9 0.00 0.00 0.00 84 1009.7
20260504042004 31 53 12.9 12.9 0.00 0.00 0.00 83 1009.7
20260504041905 31 60 12.9 9.7 0.00 0.00 0.00 82 1009.7
20260504041804 31 58 9.7 11.3 0.00 0.00 0.00 82 1009.6
20260504041704 32 52 11.3 9.7 0.00 0.00 0.00 81 1009.6
20260504041604 32 47 9.7 6.4 0.00 0.00 0.00 78 1009.6
20260504041510 32 62 6.4 3.2 0.00 0.00 0.00 76 1009.6
20260504041404 32 82 3.2 3.2 0.00 0.00 0.00 75 1009.6
20260504041306 32 107 3.2 0.0 0.00 0.00 0.00 75 1009.6
20260504041204 32 113 0.0 3.2 0.00 0.00 0.00 75 1009.6
20260504041104 32 135 3.2 0.0 0.00 0.00 0.00 75 1009.6
20260504041004 32 89 0.0 0.0 0.00 0.00 0.00 75 1009.6
20260504040904 32 116 0.0 1.6 0.00 0.00 0.00 75 1009.7
20260504040804 32 118 1.6 0.0 0.00 0.00 0.00 75 1009.7
20260504040704 32 196 0.0 1.6 0.00 0.00 0.00 76 1009.7
20260504040604 32 262 1.6 4.8 0.00 0.00 0.00 75 1009.7
20260504040504 32 262 4.8 4.8 0.00 0.00 0.00 75 1009.7
20260504040404 32 253 6.4 4.8 0.00 0.00 0.00 74 1009.7
20260504040303 32 281 4.8 3.2 0.00 0.00 0.00 75 1009.7
20260504040203 32 242 3.2 1.6 0.00 0.00 0.00 75 1009.7
20260504040103 32 230 1.6 0.0 0.00 0.00 0.00 75 1009.7
20260504040005 32 191 0.0 4.8 0.00 0.00 0.00 75 1009.7
20260504035903 32 191 4.8 4.8 0.00 0.00 0.00 75 1009.7
20260504035804 32 148 4.8 6.4 0.00 0.00 0.00 75 1009.7
20260504035703 32 111 6.4 6.4 0.00 0.00 0.00 74 1009.7
20260504035603 32 147 6.4 1.6 0.00 0.00 0.00 74 1009.7
20260504035504 32 137 1.6 3.2 0.00 0.00 0.00 74 1009.7
20260504035405 32 78 6.4 6.4 0.00 0.00 0.00 73 1009.7
20260504035305 33 106 6.4 6.4 0.00 0.00 0.00 74 1009.7
20260504035203 33 113 6.4 8.0 0.00 0.00 0.00 73 1009.7
20260504035103 33 113 8.0 4.8 0.00 0.00 0.00 73 1009.8
20260504035003 33 125 4.8 0.0 0.00 0.00 0.00 73 1009.8
20260504034906 33 163 0.0 1.6 0.00 0.00 0.00 73 1009.8
20260504034803 33 237 1.6 3.2 0.00 0.00 0.00 73 1009.8
20260504034703 33 237 3.2 0.0 0.00 0.00 0.00 74 1009.8
20260504034603 32 217 0.0 0.0 0.00 0.00 0.00 75 1009.8
20260504034503 32 141 0.0 6.4 0.00 0.00 0.00 73 1009.8
20260504034415 32 79 1.6 4.8 0.00 0.00 0.00 73 1009.9
20260504034303 32 78 4.8 6.4 0.00 0.00 0.00 74 1009.9
20260504034203 32 148 6.4 4.8 0.00 0.00 0.00 74 1009.9
20260504034103 32 138 4.8 3.2 0.00 0.00 0.00 76 1009.9
20260504034003 32 187 3.2 4.8 0.00 0.00 0.00 75 1009.9
20260504033903 32 193 4.8 6.4 0.00 0.00 0.00 74 1009.9
20260504033803 32 141 6.4 6.4 0.00 0.00 0.00 76 1009.9
20260504033703 32 172 6.4 4.8 0.00 0.00 0.00 76 1009.9
20260504033603 32 134 4.8 4.8 0.00 0.00 0.00 76 1009.9
20260504033503 32 187 4.8 4.8 0.00 0.00 0.00 77 1009.9
20260504033403 32 179 8.0 8.0 0.00 0.00 0.00 77 1009.9
20260504033334 32 180 8.0 3.2 0.00 0.00 0.00 77 1009.9
20260504033243 32 164 3.2 4.8 0.00 0.00 0.00 77 1009.9
20260504033126 32 184 4.8 4.8 0.00 0.00 0.00 76 1009.9
20260504033026 32 203 4.8 6.4 0.00 0.00 0.00 77 1009.9
20260504032903 32 170 6.4 4.8 0.00 0.00 0.00 78 1009.9
20260504032805 32 134 4.8 6.4 0.00 0.00 0.00 79 1009.9
20260504032703 32 165 6.4 4.8 0.00 0.00 0.00 79 1009.9
20260504032603 32 157 4.8 6.4 0.00 0.00 0.00 78 1009.9
20260504032503 32 142 6.4 3.2 0.00 0.00 0.00 78 1009.9
20260504032406 32 163 3.2 6.4 0.00 0.00 0.00 79 1009.9
20260504032304 32 189 6.4 8.0 0.00 0.00 0.00 79 1010.0
20260504032203 32 184 8.0 4.8 0.00 0.00 0.00 78 1010.0
20260504032103 32 174 4.8 3.2 0.00 0.00 0.00 79 1010.0
20260504032003 32 145 3.2 1.6 0.00 0.00 0.00 79 1010.0
20260504031903 32 73 1.6 1.6 0.00 0.00 0.00 80 1010.0
20260504031803 32 116 1.6 1.6 0.00 0.00 0.00 80 1010.0
20260504031703 32 24 1.6 0.0 0.00 0.00 0.00 79 1010.0
20260504031603 32 24 0.0 1.6 0.00 0.00 0.00 80 1010.0
20260504031536 32 149 1.6 4.8 0.00 0.00 0.00 80 1010.1
20260504031403 32 149 4.8 4.8 0.00 0.00 0.00 80 1010.1
20260504031303 32 136 4.8 6.4 0.00 0.00 0.00 80 1010.1
20260504031203 32 147 6.4 3.2 0.00 0.00 0.00 79 1010.1
20260504031103 32 145 3.2 4.8 0.00 0.00 0.00 81 1010.1
20260504031003 32 89 4.8 1.6 0.00 0.00 0.00 80 1010.1
20260504030903 31 202 1.6 3.2 0.00 0.00 0.00 81 1010.1
20260504030803 31 193 3.2 6.4 0.00 0.00 0.00 80 1010.1
20260504030703 31 170 6.4 3.2 0.00 0.00 0.00 80 1010.1
20260504030603 31 144 3.2 3.2 0.00 0.00 0.00 81 1010.1
20260504030503 31 148 3.2 3.2 0.00 0.00 0.00 80 1010.1
20260504030403 31 151 6.4 8.0 0.00 0.00 0.00 79 1010.1
20260504030303 31 153 8.0 8.0 0.00 0.00 0.00 80 1010.1
20260504030203 31 152 8.0 4.8 0.00 0.00 0.00 82 1010.1
20260504030009 31 67 3.2 6.4 0.00 0.00 0.00 81 1010.2
20260504025903 31 119 6.4 3.2 0.00 0.00 0.00 82 1010.2
20260504025803 31 151 3.2 3.2 0.00 0.00 0.00 83 1010.2
20260504025703 31 176 3.2 1.6 0.00 0.00 0.00 83 1010.2
20260504025603 31 188 1.6 3.2 0.00 0.00 0.00 84 1010.2
20260504025503 31 168 3.2 4.8 0.00 0.00 0.00 84 1010.2
20260504025403 31 163 6.4 1.6 0.00 0.00 0.00 84 1010.2
20260504025304 31 175 1.6 3.2 0.00 0.00 0.00 84 1010.2
20260504025203 31 138 3.2 4.8 0.00 0.00 0.00 82 1010.2
20260504025103 31 132 4.8 4.8 0.00 0.00 0.00 83 1010.2
20260504025003 31 98 4.8 6.4 0.00 0.00 0.00 83 1010.2
20260504024903 31 111 6.4 3.2 0.00 0.00 0.00 83 1010.2
20260504024803 31 129 3.2 4.8 0.00 0.00 0.00 84 1010.2
20260504024703 31 133 4.8 6.4 0.00 0.00 0.00 84 1010.2
20260504024603 31 52 6.4 4.8 0.00 0.00 0.00 84 1010.2
20260504024517 31 70 4.8 4.8 0.00 0.00 0.00 84 1010.2
20260504024403 31 79 4.8 3.2 0.00 0.00 0.00 83 1010.2
20260504024305 31 102 3.2 6.4 0.00 0.00 0.00 85 1010.2
20260504024203 31 75 6.4 8.0 0.00 0.00 0.00 85 1010.2
20260504024108 31 77 8.0 6.4 0.00 0.00 0.00 85 1010.2
20260504024003 31 64 6.4 8.0 0.00 0.00 0.00 85 1010.2
20260504023904 31 87 8.0 6.4 0.00 0.00 0.00 85 1010.2
20260504023803 31 94 6.4 1.6 0.00 0.00 0.00 85 1010.2
20260504023703 31 112 1.6 6.4 0.00 0.00 0.00 85 1010.2
20260504023603 31 150 6.4 3.2 0.00 0.00 0.00 84 1010.2
20260504023503 31 118 3.2 3.2 0.00 0.00 0.00 86 1010.2
20260504023403 31 152 3.2 3.2 0.00 0.00 0.00 86 1010.2
20260504023303 31 173 3.2 4.8 0.00 0.00 0.00 86 1010.2
20260504023203 31 138 4.8 4.8 0.00 0.00 0.00 85 1010.2
20260504023103 31 161 4.8 6.4 0.00 0.00 0.00 85 1010.2
20260504023030 31 167 6.4 3.2 0.00 0.00 0.00 85 1010.2
20260504022905 31 164 3.2 3.2 0.00 0.00 0.00 85 1010.2
20260504022803 31 97 3.2 6.4 0.00 0.00 0.00 86 1010.2
20260504022703 31 123 6.4 1.6 0.00 0.00 0.00 86 1010.2
20260504022603 31 121 1.6 0.0 0.00 0.00 0.00 86 1010.2
20260504022503 31 150 0.0 1.6 0.00 0.00 0.00 86 1010.3
20260504022403 30 128 4.8 3.2 0.00 0.00 0.00 86 1010.3
20260504022304 30 85 3.2 4.8 0.00 0.00 0.00 87 1010.3
20260504022203 30 130 4.8 4.8 0.00 0.00 0.00 87 1010.3
20260504022103 30 133 4.8 1.6 0.00 0.00 0.00 88 1010.3
20260504022003 30 130 1.6 3.2 0.00 0.00 0.00 88 1010.3
20260504021903 30 199 3.2 4.8 0.00 0.00 0.00 88 1010.3
20260504021803 30 223 4.8 3.2 0.00 0.00 0.00 87 1010.3
20260504021703 30 231 3.2 6.4 0.00 0.00 0.00 88 1010.3
20260504021604 30 228 6.4 3.2 0.00 0.00 0.00 87 1010.3
20260504021405 30 191 0.0 1.6 0.00 0.00 0.00 89 1010.3
20260504021303 30 191 1.6 3.2 0.00 0.00 0.00 89 1010.3
20260504021203 30 204 3.2 4.8 0.00 0.00 0.00 88 1010.3
20260504021103 30 206 4.8 3.2 0.00 0.00 0.00 89 1010.3
20260504021003 30 215 3.2 1.6 0.00 0.00 0.00 88 1010.3
20260504020920 30 214 1.6 0.0 0.00 0.00 0.00 89 1010.3
20260504020704 30 126 0.0 0.0 0.00 0.00 0.00 89 1010.3
20260504020603 30 126 0.0 0.0 0.00 0.00 0.00 89 1010.3
20260504020502 30 125 0.0 0.0 0.00 0.00 0.00 89 1010.3
20260504020402 30 125 1.6 0.0 0.00 0.00 0.00 89 1010.3
20260504020303 30 134 0.0 0.0 0.00 0.00 0.00 90 1010.3
20260504020203 30 134 0.0 4.8 0.00 0.00 0.00 90 1010.3
20260504020006 30 157 1.6 3.2 0.00 0.00 0.00 90 1010.3
20260504015903 30 160 3.2 4.8 0.00 0.00 0.00 90 1010.3
20260504015802 30 150 4.8 3.2 0.00 0.00 0.00 90 1010.3
20260504015702 30 164 3.2 0.0 0.00 0.00 0.00 90 1010.3
20260504015353 30 251 1.6 4.8 0.00 0.00 0.00 90 1010.2
20260504015253 30 241 4.8 6.4 0.00 0.00 0.00 89 1010.2
20260504015153 30 231 6.4 3.2 0.00 0.00 0.00 90 1010.2
20260504015056 30 234 3.2 1.6 0.00 0.00 0.00 90 1010.2
20260504014953 30 211 1.6 6.4 0.00 0.00 0.00 90 1010.1
20260504014853 30 221 6.4 1.6 0.00 0.00 0.00 90 1010.1
20260504014753 30 218 1.6 0.0 0.00 0.00 0.00 91 1010.1
20260504014653 30 119 0.0 0.0 0.00 0.00 0.00 92 1010.1
20260504014453 30 119 0.0 1.6 0.00 0.00 0.00 92 1010.1
20260504014353 29 161 1.6 1.6 0.00 0.00 0.00 93 1010.0
20260504014253 29 207 1.6 1.6 0.00 0.00 0.00 92 1010.0
20260504014155 29 219 1.6 3.2 0.00 0.00 0.00 92 1010.0
20260504014053 29 223 3.2 1.6 0.00 0.00 0.00 93 1010.0
20260504013953 29 215 1.6 0.0 0.00 0.00 0.00 94 1010.0
20260504013853 29 196 0.0 0.0 0.00 0.00 0.00 94 1010.0
20260504013753 29 227 0.0 0.0 0.00 0.00 0.00 94 1009.9
20260504013657 29 198 0.0 0.0 0.00 0.00 0.00 94 1009.9
20260504013553 28 194 0.0 1.6 0.00 0.00 0.00 94 1009.9
20260504013453 28 203 1.6 0.0 0.00 0.00 0.00 95 1009.9
20260504013353 28 202 1.6 1.6 0.00 0.00 0.00 94 1009.9
20260504013306 28 199 1.6 0.0 0.00 0.00 0.00 94 1009.9
20260504013153 28 207 0.0 0.0 0.00 0.00 0.00 95 1009.9
20260504013106 28 178 0.0 0.0 0.00 0.00 0.00 96 1009.9
20260504012953 28 182 0.0 0.0 0.00 0.00 0.00 96 1009.9
20260504012853 28 236 0.0 3.2 0.00 0.00 0.00 96 1009.9
20260504012753 28 238 3.2 1.6 0.00 0.00 0.00 96 1009.9
20260504012653 28 205 1.6 3.2 0.00 0.00 0.00 95 1009.9
20260504012553 28 214 3.2 0.0 0.00 0.00 0.00 96 1009.9
20260504012453 28 191 0.0 0.0 0.00 0.00 0.00 96 1009.9
20260504012353 28 203 0.0 0.0 0.00 0.00 0.00 98 1009.9
20260504012253 28 237 0.0 0.0 0.00 0.00 0.00 98 1009.9
20260504012153 28 215 0.0 0.0 0.00 0.00 0.00 98 1009.9
20260504012053 28 187 0.0 0.0 0.00 0.00 0.00 99 1009.9
20260504011953 28 186 0.0 0.0 0.00 0.00 0.00 99 1009.9
20260504011853 28 248 0.0 0.0 0.00 0.00 0.00 99 1009.9
20260504011753 28 248 0.0 0.0 0.00 0.00 0.00 99 1009.9
20260504011653 28 248 0.0 0.0 0.00 0.00 0.00 99 1009.9
20260504011558 27 197 0.0 0.0 0.00 0.00 0.00 99 1009.9
20260504011453 27 195 0.0 0.0 0.00 0.00 0.00 99 1009.9
20260504011353 27 195 0.0 0.0 0.00 0.00 0.00 99 1009.9
20260504011253 27 207 0.0 0.0 0.00 0.00 0.00 99 1009.9
20260504011154 27 205 0.0 1.6 0.00 0.00 0.00 99 1009.9
20260504011053 27 218 1.6 0.0 0.00 0.00 0.00 99 1009.9
20260504010953 27 222 0.0 0.0 0.00 0.00 0.00 99 1009.9
20260504010910 27 224 0.0 0.0 0.00 0.00 0.00 99 1009.9
20260504010754 27 222 0.0 0.0 0.00 0.00 0.00 99 1009.8
20260504010653 27 221 0.0 0.0 0.00 0.00 0.00 99 1009.8
20260504010553 27 209 0.0 0.0 0.00 0.00 0.00 99 1009.8
20260504010453 27 243 0.0 0.0 0.00 0.00 0.00 99 1009.8
20260504010353 27 243 0.0 0.0 0.00 0.00 0.00 99 1009.8
20260504010253 27 243 0.0 0.0 0.00 0.00 0.00 99 1009.8
20260504010153 27 243 0.0 0.0 0.00 0.00 0.00 99 1009.8
20260504010053 27 243 0.0 0.0 0.00 0.00 0.00 99 1009.8
20260504005953 27 243 0.0 0.0 0.00 0.00 0.00 99 1009.8
20260504005855 27 243 0.0 0.0 0.00 0.00 0.00 99 1009.8
20260504005755 27 224 0.0 0.0 0.00 0.00 0.00 99 1009.8
20260504005653 27 233 0.0 0.0 0.00 0.00 0.00 99 1009.8
20260504005555 27 219 0.0 0.0 0.00 0.00 0.00 99 1009.8
20260504004817 26 203 0.0 0.0 0.00 0.00 0.00 99 1009.4
20260504004718 26 202 0.0 0.0 0.00 0.00 0.00 99 1009.4
20260504004617 26 202 0.0 0.0 0.00 0.00 0.00 99 1009.4
20260504004523 26 214 0.0 0.0 0.00 0.00 0.00 99 1009.4
20260504004417 26 214 0.0 0.0 0.00 0.00 0.00 99 1009.4
20260504004317 26 214 0.0 0.0 0.00 0.00 0.00 99 1009.4
20260504004217 26 213 0.0 0.0 0.00 0.00 0.00 99 1009.3
20260504004117 26 213 0.0 0.0 0.00 0.00 0.00 99 1009.3
20260504004017 26 269 0.0 0.0 0.00 0.00 0.00 99 1009.3
20260504003917 26 269 0.0 0.0 0.00 0.00 0.00 99 1009.3
20260504003817 26 269 0.0 0.0 0.00 0.00 0.00 99 1009.3
20260504003717 26 274 0.0 0.0 0.00 0.00 0.00 99 1009.3
20260504003617 26 276 0.0 0.0 0.00 0.00 0.00 99 1009.3
20260504003517 26 276 0.0 0.0 0.00 0.00 0.00 99 1009.3
20260504003417 26 276 0.0 0.0 0.00 0.00 0.00 99 1009.3
20260504003317 26 276 0.0 0.0 0.00 0.00 0.00 99 1009.2
20260504003217 26 276 0.0 0.0 0.00 0.00 0.00 99 1009.2
20260504003117 26 276 0.0 1.6 0.00 0.00 0.00 99 1009.2
20260504003033 26 276 0.0 0.0 0.00 0.00 0.00 99 1009.2
20260504002917 26 276 0.0 0.0 0.00 0.00 0.00 99 1009.2
20260504002817 26 276 0.0 0.0 0.00 0.00 0.00 99 1009.2
20260504002717 26 276 0.0 0.0 0.00 0.00 0.00 99 1009.2
20260504002617 26 276 0.0 0.0 0.00 0.00 0.00 99 1009.1
20260504002517 26 276 0.0 0.0 0.00 0.00 0.00 99 1009.1
20260504002417 25 276 0.0 0.0 0.00 0.00 0.00 99 1009.1
20260504002317 25 276 0.0 0.0 0.00 0.00 0.00 99 1009.1
20260504002217 25 276 0.0 0.0 0.00 0.00 0.00 99 1009.1
20260504002117 25 276 0.0 4.8 0.00 0.00 0.00 99 1009.1
20260504002017 25 276 0.0 0.0 0.00 0.00 0.00 99 1009.1
20260504001917 25 276 0.0 3.2 0.00 0.00 0.00 99 1009.0
20260504001817 25 279 3.2 3.2 0.00 0.00 0.00 99 1009.0
20260504001717 25 279 3.2 3.2 0.00 0.00 0.00 99 1009.0
20260504001617 25 279 3.2 1.6 0.00 0.00 0.00 99 1009.0
20260504001517 25 282 1.6 3.2 0.00 0.00 0.00 99 1009.0
20260504001417 25 282 3.2 4.8 0.00 0.00 0.00 99 1009.0
20260504001319 25 282 4.8 4.8 0.00 0.00 0.00 99 1009.0
20260504001217 25 292 4.8 4.8 0.00 0.00 0.00 99 1009.0
20260504001117 25 283 4.8 3.2 0.00 0.00 0.00 99 1009.0
20260504001019 25 269 3.2 4.8 0.00 0.00 0.00 99 1008.9
20260504000917 25 277 4.8 6.4 0.00 0.00 0.00 99 1008.9
20260504000819 25 280 6.4 6.4 0.00 0.00 0.00 99 1008.9
20260504000717 25 276 6.4 6.4 0.00 0.00 0.00 99 1008.9
20260504000617 25 283 6.4 6.4 0.00 0.00 0.00 99 1008.9
20260504000517 25 278 6.4 4.8 0.00 0.00 0.00 99 1008.9
20260504000417 25 278 4.8 4.8 0.00 0.00 0.00 99 1008.8
20260504000317 25 278 4.8 3.2 0.00 0.00 0.00 99 1008.8
20260504000219 25 279 3.2 3.2 0.00 0.00 0.00 99 1008.8
20260504000117 25 271 3.2 3.2 0.00 0.00 0.00 99 1008.8
20260504000021 25 281 4.8 4.8 0.00 0.00 0.00 99 1008.7
20260503235917 25 282 4.8 1.6 0.00 0.00 0.00 99 1008.7
20260503235817 25 286 1.6 3.2 0.00 0.00 0.00 99 1008.7
20260503235717 25 286 3.2 3.2 0.00 0.00 0.00 99 1008.7
20260503235617 25 286 3.2 3.2 0.00 0.00 0.00 99 1008.7
20260503235517 25 294 3.2 3.2 0.00 0.00 0.00 99 1008.7
20260503235417 25 294 3.2 3.2 0.00 0.00 0.00 99 1008.7
20260503235317 25 294 3.2 3.2 0.00 0.00 0.00 99 1008.6
20260503235217 25 293 3.2 3.2 0.00 0.00 0.00 99 1008.6
20260503235117 25 270 3.2 4.8 0.00 0.00 0.00 99 1008.6
20260503235017 25 270 3.2 3.2 0.00 0.00 0.00 99 1008.6
20260503234930 25 270 3.2 3.2 0.00 0.00 0.00 99 1008.6
20260503234817 25 266 3.2 4.8 0.00 0.00 0.00 99 1008.5
20260503234717 25 266 4.8 3.2 0.00 0.00 0.00 99 1008.5
20260503234617 25 266 3.2 4.8 0.00 0.00 0.00 99 1008.5
20260503234534 25 258 4.8 4.8 0.00 0.00 0.00 99 1008.5
20260503234417 25 258 4.8 4.8 0.00 0.00 0.00 99 1008.5
20260503234317 25 259 4.8 6.4 0.00 0.00 0.00 99 1008.5
20260503234217 25 256 6.4 4.8 0.00 0.00 0.00 99 1008.4
20260503234117 25 257 4.8 4.8 0.00 0.00 0.00 99 1008.4
20260503234017 25 255 4.8 6.4 0.00 0.00 0.00 99 1008.4
20260503233917 25 247 6.4 4.8 0.00 0.00 0.00 99 1008.4
20260503233817 25 257 4.8 4.8 0.00 0.00 0.00 99 1008.4
20260503233718 25 249 4.8 3.2 0.00 0.00 0.00 99 1008.4
20260503233617 25 249 3.2 3.2 0.00 0.00 0.00 99 1008.3
20260503233517 25 248 3.2 4.8 0.00 0.00 0.00 99 1008.3
20260503233417 25 257 4.8 4.8 0.00 0.00 0.00 99 1008.3
20260503233317 25 257 4.8 4.8 0.00 0.00 0.00 99 1008.3
20260503233217 25 268 4.8 4.8 0.00 0.00 0.00 99 1008.3
20260503233117 25 250 4.8 3.2 0.00 0.00 0.00 99 1008.3
20260503233024 25 258 4.8 4.8 0.00 0.00 0.00 99 1008.3
20260503232917 25 250 4.8 4.8 0.00 0.00 0.00 99 1008.2
20260503232817 25 257 4.8 4.8 0.00 0.00 0.00 99 1008.2
20260503232717 25 265 4.8 4.8 0.00 0.00 0.00 99 1008.2
20260503232617 25 265 4.8 6.4 0.00 0.00 0.00 99 1008.2
20260503232519 25 270 6.4 4.8 0.00 0.00 0.00 99 1008.2
20260503232417 25 275 4.8 6.4 0.00 0.00 0.00 99 1008.2
20260503232317 25 285 6.4 4.8 0.00 0.00 0.00 99 1008.2
20260503232217 25 285 4.8 4.8 0.00 0.00 0.00 99 1008.2
20260503232117 25 285 4.8 3.2 0.00 0.00 0.00 99 1008.2
20260503232017 25 261 3.2 3.2 0.00 0.00 0.00 99 1008.2
20260503231917 25 227 3.2 3.2 0.00 0.00 0.00 99 1008.1
20260503231817 25 227 3.2 1.6 0.00 0.00 0.00 99 1008.1
20260503231717 25 227 1.6 1.6 0.00 0.00 0.00 99 1008.1
20260503231617 25 215 1.6 1.6 0.00 0.00 0.00 99 1008.1
20260503231534 25 215 1.6 1.6 0.00 0.00 0.00 99 1008.1
20260503231417 25 215 1.6 3.2 0.00 0.00 0.00 99 1008.1
20260503231317 25 215 3.2 1.6 0.00 0.00 0.00 99 1008.1
20260503231217 25 215 1.6 3.2 0.00 0.00 0.00 99 1008.1
20260503231117 25 215 3.2 3.2 0.00 0.00 0.00 99 1008.1
20260503231017 25 215 3.2 3.2 0.00 0.00 0.00 99 1008.1
20260503230917 25 242 3.2 1.6 0.00 0.00 0.00 99 1008.1
20260503230817 25 292 1.6 1.6 0.00 0.00 0.00 99 1008.1
20260503230717 25 292 1.6 1.6 0.00 0.00 0.00 99 1008.1
20260503230617 25 292 1.6 3.2 0.00 0.00 0.00 99 1008.1
20260503230518 25 292 3.2 3.2 0.00 0.00 0.00 99 1008.1
20260503230417 25 292 3.2 1.6 0.00 0.00 0.00 99 1008.1
20260503230316 25 292 1.6 1.6 0.00 0.00 0.00 99 1008.1
20260503230217 25 292 1.6 1.6 0.00 0.00 0.00 99 1008.1
20260503230116 25 292 1.6 4.8 0.00 0.00 0.00 99 1008.1
20260503230018 25 292 1.6 1.6 0.00 0.00 0.00 99 1008.1
20260503225917 25 292 1.6 1.6 0.00 0.00 0.00 99 1008.1
20260503225816 25 292 1.6 3.2 0.00 0.00 0.00 99 1008.1
20260503225716 25 292 3.2 3.2 0.00 0.00 0.00 99 1008.1
20260503225616 25 292 3.2 3.2 0.00 0.00 0.00 99 1008.1
20260503225517 25 292 3.2 3.2 0.00 0.00 0.00 99 1008.1
20260503225416 25 292 3.2 3.2 0.00 0.00 0.00 99 1008.1
20260503225316 25 296 3.2 3.2 0.00 0.00 0.00 99 1008.1
20260503225216 25 300 3.2 4.8 0.00 0.00 0.00 99 1008.1
20260503225116 25 300 4.8 4.8 0.00 0.00 0.00 99 1008.1
20260503225016 25 301 4.8 4.8 0.00 0.00 0.00 99 1008.1
20260503224916 25 302 4.8 6.4 0.00 0.00 0.00 99 1008.1
20260503224816 25 302 6.4 3.2 0.00 0.00 0.00 99 1008.1
20260503224716 25 298 3.2 3.2 0.00 0.00 0.00 99 1008.1
20260503224616 25 277 3.2 3.2 0.00 0.00 0.00 99 1008.1
20260503224522 25 277 3.2 3.2 0.00 0.00 0.00 99 1008.1